Regional Weather Roundup
Issued by NWS

Home | Current Version | Previous Version | Text Only | Print | Product List | Glossary On
Versions: 1 2 3 4 5 6 7 8 9 10 11 12 13 14 15 16 17 18 19 20 21 22 23 24 25 26 27 28 29 30 31 32 33 34 35 36 37 38 39 40 41 42 43 44 45 46 47 48 49 50
000
ASUS44 KOUN 251010
RWROK

WEATHER ROUNDUP FOR OKLAHOMA
NATIONAL WEATHER SERVICE NORMAN OK
500 AM CDT FRI JUL 25 2014

NOTE: "FAIR" INDICATES FEW OR NO CLOUDS BELOW 12,000 FEET WITH NO
      SIGNIFICANT WEATHER AND/OR OBSTRUCTIONS TO VISIBILITY.

OKZ001>007-009>012-014-015-017-251100-
NORTHWEST OKLAHOMA AND THE PANHANDLE

CITY           SKY/WX    TMP DP  RH WIND       PRES   REMARKS
GAGE           CLEAR     77  66  68 S18       29.96S
ENID/WOODRING  PTCLDY    72  68  88 S6        29.94S
$$

OKZ016-021>023-033>039-044-045-251100-
SOUTHWEST OKLAHOMA

CITY           SKY/WX    TMP DP  RH WIND       PRES   REMARKS
LAWTON/REGL    CLEAR     73  66  78 S5        30.00S
LAWTON/FT SILL CLEAR     72  67  82 S7        29.99F
FREDERICK      CLEAR     73  66  78 S8        29.97S
CLINTON        CLEAR     77  64  64 S16       30.01S
HOBART         PTCLDY    75  66  73 S12       30.00F
ALTUS AFB      CLEAR     72  68  89 SE6       29.99S
$$

OKZ018>020-024>031-251100-
CENTRAL OKLAHOMA

CITY           SKY/WX    TMP DP  RH WIND       PRES   REMARKS
OKLAHOMA CITY  PTCLDY    72  67  84 S6        29.99F
OKC/WILEY POST CLEAR     75  68  78 S14       29.98F
OKC/TINKER AFB CLEAR     73  69  87 S12       30.00R
STILLWATER     CLEAR     74  68  81 S10       29.96S
GUTHRIE        CLEAR     76  68  76 S12       29.97S
$$

OKZ008-013-054>072-251100-
NORTHEAST OKLAHOMA

CITY           SKY/WX    TMP DP  RH WIND       PRES   REMARKS
TULSA          PTCLDY    75  71  87 SE7       29.95F
TULSA/JONES    CLEAR     74  72  93 S5        29.97F
PONCA CITY     MOCLDY    77  69  76 S8        29.94F
BARTLESVILLE   PTCLDY    73  70  90 S5        29.95S
MUSKOGEE       CLEAR     70  69  97 S6        29.98F FOG
$$

OKZ032-040>043-046>053-073>077-251100-
SOUTH CENTRAL/SOUTHEAST OKLAHOMA

CITY           SKY/WX    TMP DP  RH WIND       PRES   REMARKS
ARDMORE/DWNTWN CLEAR     72  70  94 S3        30.01S
MCALESTER      MOCLDY    73  71  93 S6        30.01F FOG
$$



USA.gov is the U.S. government's official web portal to all federal, state and local government web resources and services.